2018-094H (43718 NORAD) Tracking and Keplerian Element Data

This shows tracking and keplerian element data for the satellite.

Feedback or suggestion? Click here.




ElementValue
Catalog43718
Name2018-094H
Epoch Orbit417
Epoch Day352.77838633
Epoch Year2018
RAAN357.92
Inclination97.5192
Eccentricity0.0026901
Argument of Perigee259.9043
Mean Anonmoly190.071
Mean Motion15.28954207
Decay Rate2.356E-05
L11 43718U 18094H 18352.77838633 .00002356 00000-0 85736-4 0 9998
L22 43718 97.5192 357.9200 0026901 259.9043 190.0710 15.28954207 4177

Live tracking and technical data element details for 2018-094H (NORAD 43718). 2018-094H can be tracked NOW for your location showing map with azimuth and elevation plus other details from your city location.

Track the satellite on the map from your city or location and see movement details for azimuth, elevation, latitude, longitude, range, height, and movement on the map or in text.







IsCatalogInMostPopularTable: catalog: 43718, numindb: 99
Update: records affected: 1



GetName: 43718 2018-094H

Hit Count: updated at: Mon, 27 May 2019 02:57:47 GMT